| time (UTC) | temp F | wind direction | speed knots | gust knots | rain 1hr in | rain 24hr in | rain mn in | humidity % | barometer mb |
| 20260906004049 | 78 | 175 | 5.2 | 7.8 | 0.00 | 0.00 | 0.00 | 35 | 1014.1 |
| 20260906003549 | 78 | 165 | 5.2 | 7.8 | 0.00 | 0.00 | 0.00 | 34 | 1014.1 |
| 20260906003049 | 78 | 161 | 4.3 | 8.7 | 0.00 | 0.00 | 0.00 | 35 | 1014.1 |
| 20260906002549 | 78 | 155 | 4.3 | 8.7 | 0.00 | 0.00 | 0.00 | 33 | 1014.0 |
| 20260906002049 | 78 | 171 | 5.2 | 8.7 | 0.00 | 0.00 | 0.00 | 33 | 1014.0 |
| 20260906001547 | 78 | 163 | 5.2 | 8.7 | 0.00 | 0.00 | 0.00 | 33 | 1014.1 |
| 20260906001051 | 77 | 170 | 3.5 | 7.0 | 0.00 | 0.00 | 0.00 | 32 | 1014.2 |
| 20260906001047 | 77 | 180 | 4.3 | 7.8 | 0.00 | 0.00 | 0.00 | 33 | 1014.1 |
| 20260906000047 | 77 | 192 | 4.3 | 7.8 | 0.00 | 0.00 | 0.00 | 33 | 1014.2 |
| 20260905235552 | 77 | 159 | 5.2 | 7.8 | 0.00 | 0.00 | 0.00 | 38 | 1014.2 |
| 20260905235547 | 76 | 171 | 4.3 | 7.8 | 0.00 | 0.00 | 0.00 | 33 | 1014.1 |
| 20260905234547 | 77 | 159 | 5.2 | 8.7 | 0.00 | 0.00 | 0.00 | 37 | 1014.1 |
| 20260905234047 | 78 | 166 | 6.1 | 9.6 | 0.00 | 0.00 | 0.00 | 34 | 1014.2 |
| 20260905233546 | 78 | 165 | 6.1 | 9.6 | 0.00 | 0.00 | 0.00 | 28 | 1014.1 |
| 20260905233046 | 78 | 180 | 7.0 | 9.6 | 0.00 | 0.00 | 0.00 | 27 | 1014.1 |
| 20260905232545 | 78 | 178 | 7.0 | 9.6 | 0.00 | 0.00 | 0.00 | 27 | 1014.1 |
| 20260905232045 | 78 | 176 | 6.1 | 9.6 | 0.00 | 0.00 | 0.00 | 30 | 1014.1 |
| 20260905231545 | 78 | 160 | 6.1 | 8.7 | 0.00 | 0.00 | 0.00 | 28 | 1014.2 |
| 20260905231045 | 78 | 144 | 6.1 | 8.7 | 0.00 | 0.00 | 0.00 | 31 | 1014.3 |
| 20260905230545 | 78 | 155 | 6.1 | 9.6 | 0.00 | 0.00 | 0.00 | 33 | 1014.3 |
| 20260905230045 | 78 | 155 | 7.0 | 10.4 | 0.00 | 0.00 | 0.00 | 35 | 1014.4 |
| 20260905225546 | 78 | 175 | 7.0 | 10.4 | 0.00 | 0.00 | 0.00 | 35 | 1014.4 |
| 20260905225046 | 78 | 165 | 6.1 | 11.3 | 0.00 | 0.00 | 0.00 | 31 | 1014.3 |
| 20260905224546 | 78 | 173 | 7.0 | 11.3 | 0.00 | 0.00 | 0.00 | 33 | 1014.4 |
| 20260905224044 | 78 | 189 | 7.0 | 11.3 | 0.00 | 0.00 | 0.00 | 33 | 1014.4 |
| 20260905223543 | 78 | 167 | 7.0 | 10.4 | 0.00 | 0.00 | 0.00 | 35 | 1014.4 |
| 20260905223044 | 78 | 209 | 7.8 | 12.2 | 0.00 | 0.00 | 0.00 | 34 | 1014.4 |
| 20260905222544 | 78 | 174 | 7.8 | 12.2 | 0.00 | 0.00 | 0.00 | 33 | 1014.4 |
| 20260905222044 | 78 | 163 | 7.8 | 12.2 | 0.00 | 0.00 | 0.00 | 36 | 1014.4 |
| 20260905221543 | 78 | 176 | 7.0 | 12.2 | 0.00 | 0.00 | 0.00 | 33 | 1014.5 |
| 20260905221042 | 78 | 155 | 7.0 | 11.3 | 0.00 | 0.00 | 0.00 | 36 | 1014.6 |
| 20260905220542 | 78 | 191 | 6.1 | 11.3 | 0.00 | 0.00 | 0.00 | 34 | 1014.8 |
| 20260905220042 | 78 | 153 | 5.2 | 9.6 | 0.00 | 0.00 | 0.00 | 34 | 1014.8 |
| 20260905215539 | 78 | 149 | 5.2 | 8.7 | 0.00 | 0.00 | 0.00 | 32 | 1014.8 |
| 20260905215039 | 78 | 157 | 5.2 | 8.7 | 0.00 | 0.00 | 0.00 | 33 | 1014.8 |
| 20260905214540 | 77 | 155 | 5.2 | 9.6 | 0.00 | 0.00 | 0.00 | 34 | 1014.9 |
| 20260905214039 | 77 | 134 | 5.2 | 10.4 | 0.00 | 0.00 | 0.00 | 36 | 1014.9 |
| 20260905213539 | 77 | 140 | 5.2 | 10.4 | 0.00 | 0.00 | 0.00 | 37 | 1015.0 |
| 20260905213038 | 77 | 169 | 6.1 | 10.4 | 0.00 | 0.00 | 0.00 | 34 | 1015.0 |
| 20260905212538 | 77 | 162 | 7.0 | 12.2 | 0.00 | 0.00 | 0.00 | 38 | 1015.1 |
| 20260905212039 | 77 | 182 | 7.0 | 12.2 | 0.00 | 0.00 | 0.00 | 39 | 1015.1 |
| 20260905211539 | 77 | 175 | 6.1 | 10.4 | 0.00 | 0.00 | 0.00 | 42 | 1015.1 |
| 20260905211039 | 77 | 139 | 6.1 | 12.2 | 0.00 | 0.00 | 0.00 | 44 | 1015.1 |
| 20260905210538 | 76 | 150 | 5.2 | 12.2 | 0.00 | 0.00 | 0.00 | 41 | 1015.1 |
| 20260905210038 | 77 | 170 | 6.1 | 11.3 | 0.00 | 0.00 | 0.00 | 40 | 1015.2 |
| 20260905205539 | 77 | 172 | 7.0 | 12.2 | 0.00 | 0.00 | 0.00 | 37 | 1015.3 |
| 20260905205039 | 78 | 133 | 6.1 | 12.2 | 0.00 | 0.00 | 0.00 | 40 | 1015.2 |
| 20260905204538 | 78 | 172 | 6.1 | 10.4 | 0.00 | 0.00 | 0.00 | 42 | 1015.3 |
| 20260905204044 | 78 | 156 | 5.2 | 10.4 | 0.00 | 0.00 | 0.00 | 45 | 1015.3 |
| 20260905204038 | 78 | 154 | 5.2 | 10.4 | 0.00 | 0.00 | 0.00 | 40 | 1015.3 |
| 20260905203038 | 78 | 163 | 5.2 | 11.3 | 0.00 | 0.00 | 0.00 | 44 | 1015.3 |
| 20260905202539 | 78 | 178 | 6.1 | 11.3 | 0.00 | 0.00 | 0.00 | 39 | 1015.3 |
| 20260905202039 | 78 | 122 | 7.0 | 10.4 | 0.00 | 0.00 | 0.00 | 36 | 1015.3 |
| 20260905201545 | 78 | 165 | 4.3 | 7.8 | 0.00 | 0.00 | 0.00 | 43 | 1015.4 |
| 20260905201539 | 78 | 174 | 5.2 | 10.4 | 0.00 | 0.00 | 0.00 | 39 | 1015.4 |
| 20260905200539 | 78 | 165 | 5.2 | 7.8 | 0.00 | 0.00 | 0.00 | 40 | 1015.4 |
| 20260905200038 | 77 | 160 | 6.1 | 9.6 | 0.00 | 0.00 | 0.00 | 44 | 1015.6 |
| 20260905195537 | 77 | 155 | 6.1 | 11.3 | 0.00 | 0.00 | 0.00 | 47 | 1015.6 |
| 20260905195036 | 77 | 177 | 5.2 | 11.3 | 0.00 | 0.00 | 0.00 | 46 | 1015.7 |
| 20260905194536 | 77 | 150 | 4.3 | 8.7 | 0.00 | 0.00 | 0.00 | 47 | 1015.7 |
| 20260905194036 | 77 | 180 | 4.3 | 10.4 | 0.00 | 0.00 | 0.00 | 46 | 1015.7 |
| 20260905193536 | 77 | 137 | 4.3 | 10.4 | 0.00 | 0.00 | 0.00 | 40 | 1015.6 |
| 20260905193035 | 77 | 157 | 4.3 | 10.4 | 0.00 | 0.00 | 0.00 | 42 | 1015.6 |
| 20260905192534 | 77 | 118 | 4.3 | 10.4 | 0.00 | 0.00 | 0.00 | 42 | 1015.7 |
| 20260905192033 | 76 | 150 | 4.3 | 10.4 | 0.00 | 0.00 | 0.00 | 51 | 1015.8 |
| 20260905191535 | 76 | 190 | 5.2 | 10.4 | 0.00 | 0.00 | 0.00 | 46 | 1015.9 |
| 20260905191035 | 76 | 144 | 7.0 | 10.4 | 0.00 | 0.00 | 0.00 | 48 | 1015.8 |
| 20260905190537 | 76 | 140 | 5.2 | 8.7 | 0.00 | 0.00 | 0.00 | 37 | 1016.0 |
| 20260905190533 | 77 | 142 | 6.1 | 10.4 | 0.00 | 0.00 | 0.00 | 38 | 1015.9 |
| 20260905185532 | 76 | 169 | 5.2 | 8.7 | 0.00 | 0.00 | 0.00 | 42 | 1015.9 |
| 20260905185032 | 76 | 127 | 4.3 | 8.7 | 0.00 | 0.00 | 0.00 | 41 | 1016.0 |
| 20260905184532 | 76 | 90 | 5.2 | 8.7 | 0.00 | 0.00 | 0.00 | 40 | 1016.2 |
| 20260905184033 | 76 | 139 | 4.3 | 10.4 | 0.00 | 0.00 | 0.00 | 48 | 1016.2 |
| 20260905183532 | 76 | 132 | 4.3 | 10.4 | 0.00 | 0.00 | 0.00 | 47 | 1016.0 |
| 20260905183032 | 76 | 139 | 5.2 | 8.7 | 0.00 | 0.00 | 0.00 | 41 | 1016.2 |
| 20260905182533 | 76 | 128 | 5.2 | 8.7 | 0.00 | 0.00 | 0.00 | 38 | 1016.2 |
| 20260905182033 | 76 | 113 | 4.3 | 8.7 | 0.00 | 0.00 | 0.00 | 38 | 1016.2 |
| 20260905181532 | 76 | 153 | 3.5 | 8.7 | 0.00 | 0.00 | 0.00 | 37 | 1016.2 |
| 20260905181030 | 75 | 115 | 3.5 | 7.0 | 0.00 | 0.00 | 0.00 | 33 | 1016.2 |
| 20260905180528 | 75 | 155 | 4.3 | 8.7 | 0.00 | 0.00 | 0.00 | 31 | 1016.3 |
| 20260905180028 | 75 | 111 | 4.3 | 8.7 | 0.00 | 0.00 | 0.00 | 31 | 1016.2 |
| 20260905175528 | 75 | 124 | 4.3 | 7.8 | 0.00 | 0.00 | 0.00 | 36 | 1016.0 |
| 20260905175027 | 74 | 106 | 5.2 | 9.6 | 0.00 | 0.00 | 0.00 | 30 | 1016.0 |
| 20260905174526 | 74 | 123 | 6.1 | 10.4 | 0.00 | 0.00 | 0.00 | 38 | 1016.0 |
| 20260905174027 | 73 | 115 | 7.0 | 12.2 | 0.00 | 0.00 | 0.00 | 41 | 1015.9 |
| 20260905173531 | 72 | 100 | 8.7 | 12.2 | 0.00 | 0.00 | 0.00 | 34 | 1015.8 |
| 20260905173526 | 73 | 94 | 7.8 | 12.2 | 0.00 | 0.00 | 0.00 | 40 | 1015.9 |
| 20260905173133 | 73 | 106 | 7.8 | 12.2 | 0.00 | 0.00 | 0.00 | 36 | 1015.7 |
| 20260905172030 | 73 | 103 | 7.8 | 11.3 | 0.00 | 0.00 | 0.00 | 39 | 1015.7 |
| 20260905172026 | 73 | 119 | 7.8 | 12.2 | 0.00 | 0.00 | 0.00 | 39 | 1015.8 |
| 20260905171633 | 73 | 127 | 7.8 | 10.4 | 0.00 | 0.00 | 0.00 | 36 | 1015.6 |
| 20260905170525 | 74 | 117 | 7.8 | 10.4 | 0.00 | 0.00 | 0.00 | 36 | 1015.5 |
| 20260905170027 | 74 | 109 | 7.0 | 10.4 | 0.00 | 0.00 | 0.00 | 32 | 1015.6 |
| 20260905165520 | 73 | 120 | 7.0 | 11.3 | 0.00 | 0.00 | 0.00 | 31 | 1015.6 |
| 20260905165020 | 73 | 88 | 7.0 | 11.3 | 0.00 | 0.00 | 0.00 | 28 | 1015.5 |
| 20260905164520 | 72 | 94 | 7.0 | 10.4 | 0.00 | 0.00 | 0.00 | 26 | 1015.5 |
| 20260905164020 | 72 | 103 | 7.8 | 10.4 | 0.00 | 0.00 | 0.00 | 30 | 1015.4 |
| 20260905163520 | 72 | 65 | 7.8 | 9.6 | 0.00 | 0.00 | 0.00 | 31 | 1015.4 |
| 20260905163020 | 72 | 71 | 7.0 | 9.6 | 0.00 | 0.00 | 0.00 | 34 | 1015.3 |
| 20260905162519 | 73 | 70 | 6.1 | 8.7 | 0.00 | 0.00 | 0.00 | 35 | 1015.3 |
| 20260905162020 | 72 | 91 | 5.2 | 7.8 | 0.00 | 0.00 | 0.00 | 31 | 1015.2 |
| 20260905161520 | 72 | 55 | 5.2 | 7.8 | 0.00 | 0.00 | 0.00 | 32 | 1015.3 |
| 20260905161020 | 72 | 67 | 4.3 | 7.8 | 0.00 | 0.00 | 0.00 | 28 | 1015.2 |
| 20260905160520 | 72 | 60 | 4.3 | 7.0 | 0.00 | 0.00 | 0.00 | 34 | 1015.2 |
| 20260905160020 | 72 | 97 | 4.3 | 9.6 | 0.00 | 0.00 | 0.00 | 32 | 1015.2 |
| 20260905155520 | 71 | 55 | 5.2 | 9.6 | 0.00 | 0.00 | 0.00 | 34 | 1015.1 |
| 20260905155020 | 71 | 63 | 5.2 | 8.7 | 0.00 | 0.00 | 0.00 | 36 | 1015.1 |
| 20260905154517 | 71 | 60 | 4.3 | 10.4 | 0.00 | 0.00 | 0.00 | 34 | 1015.1 |
| 20260905154019 | 70 | 81 | 4.3 | 10.4 | 0.00 | 0.00 | 0.00 | 45 | 1015.1 |
| 20260905153518 | 70 | 89 | 6.1 | 10.4 | 0.00 | 0.00 | 0.00 | 38 | 1015.0 |
| 20260905153019 | 69 | 74 | 7.0 | 10.4 | 0.00 | 0.00 | 0.00 | 38 | 1015.0 |
| 20260905152518 | 69 | 85 | 6.1 | 8.7 | 0.00 | 0.00 | 0.00 | 40 | 1015.0 |
| 20260905152016 | 69 | 96 | 7.0 | 10.4 | 0.00 | 0.00 | 0.00 | 41 | 1015.0 |
| 20260905151516 | 69 | 94 | 7.8 | 10.4 | 0.00 | 0.00 | 0.00 | 39 | 1015.0 |
| 20260905151024 | 69 | 87 | 7.8 | 10.4 | 0.00 | 0.00 | 0.00 | 37 | 1014.8 |
| 20260905151017 | 69 | 95 | 7.8 | 10.4 | 0.00 | 0.00 | 0.00 | 33 | 1014.9 |
| 20260905150016 | 68 | 82 | 7.8 | 10.4 | 0.00 | 0.00 | 0.00 | 40 | 1014.6 |
| 20260905145516 | 69 | 89 | 7.8 | 10.4 | 0.00 | 0.00 | 0.00 | 40 | 1014.6 |
| 20260905145015 | 68 | 94 | 7.8 | 10.4 | 0.00 | 0.00 | 0.00 | 37 | 1014.5 |
| 20260905144515 | 68 | 85 | 7.8 | 10.4 | 0.00 | 0.00 | 0.00 | 41 | 1014.5 |
| 20260905144014 | 68 | 93 | 8.7 | 10.4 | 0.00 | 0.00 | 0.00 | 38 | 1014.5 |
| 20260905143518 | 67 | 88 | 9.6 | 11.3 | 0.00 | 0.00 | 0.00 | 41 | 1014.4 |
| 20260905143514 | 67 | 88 | 8.7 | 10.4 | 0.00 | 0.00 | 0.00 | 36 | 1014.3 |
| 20260905143122 | 67 | 90 | 8.7 | 12.2 | 0.00 | 0.00 | 0.00 | 38 | 1014.3 |
| 20260905142622 | 66 | 85 | 7.8 | 12.2 | 0.00 | 0.00 | 0.00 | 49 | 1014.4 |
| 20260905142122 | 66 | 88 | 8.7 | 12.2 | 0.00 | 0.00 | 0.00 | 38 | 1014.2 |
| 20260905141512 | 66 | 74 | 8.7 | 12.2 | 0.00 | 0.00 | 0.00 | 47 | 1014.3 |
| 20260905140511 | 65 | 86 | 8.7 | 10.4 | 0.00 | 0.00 | 0.00 | 49 | 1014.2 |
| 20260905140011 | 66 | 75 | 8.7 | 10.4 | 0.00 | 0.00 | 0.00 | 48 | 1014.2 |
| 20260905135511 | 65 | 90 | 7.0 | 10.4 | 0.00 | 0.00 | 0.00 | 44 | 1014.1 |
| 20260905135012 | 65 | 78 | 6.1 | 10.4 | 0.00 | 0.00 | 0.00 | 53 | 1014.1 |
| 20260905134512 | 65 | 79 | 6.1 | 10.4 | 0.00 | 0.00 | 0.00 | 55 | 1014.0 |
| 20260905134011 | 65 | 49 | 6.1 | 10.4 | 0.00 | 0.00 | 0.00 | 63 | 1014.0 |
| 20260905133511 | 66 | 67 | 7.8 | 11.3 | 0.00 | 0.00 | 0.00 | 46 | 1013.9 |
| 20260905133011 | 66 | 76 | 9.6 | 12.2 | 0.00 | 0.00 | 0.00 | 45 | 1013.9 |
| 20260905132511 | 66 | 74 | 9.6 | 12.2 | 0.00 | 0.00 | 0.00 | 37 | 1013.8 |
| 20260905132012 | 65 | 82 | 7.8 | 12.2 | 0.00 | 0.00 | 0.00 | 36 | 1013.7 |
| 20260905131511 | 65 | 71 | 7.0 | 9.6 | 0.00 | 0.00 | 0.00 | 50 | 1013.7 |
| 20260905131011 | 65 | 51 | 7.0 | 10.4 | 0.00 | 0.00 | 0.00 | 53 | 1013.7 |
| 20260905130512 | 66 | 57 | 7.8 | 10.4 | 0.00 | 0.00 | 0.00 | 45 | 1013.5 |
| 20260905130013 | 66 | 74 | 7.8 | 10.4 | 0.00 | 0.00 | 0.00 | 39 | 1013.6 |
| 20260905125511 | 66 | 76 | 7.8 | 10.4 | 0.00 | 0.00 | 0.00 | 41 | 1013.6 |
| 20260905125015 | 65 | 66 | 6.1 | 11.3 | 0.00 | 0.00 | 0.00 | 49 | 1013.7 |
| 20260905125011 | 65 | 92 | 7.0 | 11.3 | 0.00 | 0.00 | 0.00 | 43 | 1013.7 |
| 20260905124011 | 65 | 72 | 5.2 | 8.7 | 0.00 | 0.00 | 0.00 | 56 | 1013.7 |
| 20260905123511 | 65 | 59 | 5.2 | 8.7 | 0.00 | 0.00 | 0.00 | 52 | 1013.7 |
| 20260905123014 | 65 | 57 | 6.1 | 9.6 | 0.00 | 0.00 | 0.00 | 59 | 1013.7 |
| 20260905123010 | 65 | 61 | 6.1 | 9.6 | 0.00 | 0.00 | 0.00 | 49 | 1013.7 |
| 20260905122009 | 65 | 60 | 5.2 | 7.8 | 0.00 | 0.00 | 0.00 | 59 | 1013.7 |
| 20260905121509 | 64 | 63 | 4.3 | 7.8 | 0.00 | 0.00 | 0.00 | 53 | 1013.7 |
| 20260905121009 | 63 | 71 | 3.5 | 7.8 | 0.00 | 0.00 | 0.00 | 58 | 1013.7 |
| 20260905120509 | 63 | 46 | 4.3 | 7.0 | 0.00 | 0.00 | 0.00 | 73 | 1013.7 |
| 20260905120008 | 63 | 35 | 5.2 | 7.8 | 0.00 | 0.00 | 0.00 | 76 | 1013.7 |
| 20260905115509 | 63 | 40 | 5.2 | 7.8 | 0.00 | 0.00 | 0.00 | 72 | 1013.7 |
| 20260905115009 | 63 | 40 | 5.2 | 7.8 | 0.00 | 0.00 | 0.00 | 76 | 1013.7 |
| 20260905114513 | 64 | 37 | 3.5 | 6.1 | 0.00 | 0.00 | 0.00 | 66 | 1013.6 |
| 20260905114509 | 63 | 40 | 4.3 | 7.0 | 0.00 | 0.00 | 0.00 | 75 | 1013.7 |
| 20260905113510 | 65 | 47 | 3.5 | 6.1 | 0.00 | 0.00 | 0.00 | 62 | 1013.7 |
| 20260905113007 | 64 | 82 | 2.6 | 6.1 | 0.00 | 0.00 | 0.00 | 49 | 1013.8 |
| 20260905112506 | 64 | 96 | 2.6 | 6.1 | 0.00 | 0.00 | 0.00 | 59 | 1013.9 |
| 20260905112011 | 64 | 23 | 2.6 | 4.3 | 0.00 | 0.00 | 0.00 | 70 | 1013.8 |
| 20260905112007 | 64 | 74 | 2.6 | 6.1 | 0.00 | 0.00 | 0.00 | 63 | 1013.8 |
| 20260905111007 | 64 | 28 | 3.5 | 4.3 | 0.00 | 0.00 | 0.00 | 61 | 1013.8 |
| 20260905110508 | 63 | 55 | 2.6 | 4.3 | 0.00 | 0.00 | 0.00 | 68 | 1013.8 |
| 20260905110008 | 63 | 37 | 0.9 | 3.5 | 0.00 | 0.00 | 0.00 | 70 | 1013.8 |
| 20260905105507 | 62 | 31 | 0.9 | 4.3 | 0.00 | 0.00 | 0.00 | 73 | 1013.8 |
| 20260905105007 | 62 | 34 | 1.7 | 5.2 | 0.00 | 0.00 | 0.00 | 74 | 1013.9 |
| 20260905104507 | 63 | 32 | 2.6 | 5.2 | 0.00 | 0.00 | 0.00 | 80 | 1013.9 |
| 20260905104010 | 63 | 23 | 2.6 | 5.2 | 0.00 | 0.00 | 0.00 | 78 | 1013.9 |
| 20260905104006 | 63 | 15 | 2.6 | 5.2 | 0.00 | 0.00 | 0.00 | 78 | 1013.9 |
| 20260905103005 | 63 | 33 | 1.7 | 5.2 | 0.00 | 0.00 | 0.00 | 77 | 1013.9 |
| 20260905102511 | 64 | 34 | 0.9 | 4.3 | 0.00 | 0.00 | 0.00 | 67 | 1013.9 |
| 20260905102505 | 64 | 38 | 0.9 | 5.2 | 0.00 | 0.00 | 0.00 | 76 | 1013.9 |
| 20260905101506 | 63 | 44 | 0.9 | 2.6 | 0.00 | 0.00 | 0.00 | 55 | 1013.9 |
| 20260905101005 | 63 | 15 | 0.9 | 5.2 | 0.00 | 0.00 | 0.00 | 75 | 1013.9 |
| 20260905100504 | 63 | 14 | 0.9 | 5.2 | 0.00 | 0.00 | 0.00 | 76 | 1013.9 |
| 20260905100005 | 63 | 14 | 2.6 | 5.2 | 0.00 | 0.00 | 0.00 | 74 | 1013.9 |
| 20260905095503 | 64 | 17 | 1.7 | 5.2 | 0.00 | 0.00 | 0.00 | 77 | 1014.0 |
| 20260905095003 | 64 | 34 | 0.0 | 4.3 | 0.00 | 0.00 | 0.00 | 60 | 1013.9 |
| 20260905094507 | 64 | 54 | 0.0 | 4.3 | 0.00 | 0.00 | 0.00 | 69 | 1013.9 |
| 20260905094503 | 64 | 68 | 0.9 | 4.3 | 0.00 | 0.00 | 0.00 | 61 | 1013.9 |
| 20260905093507 | 64 | 21 | 1.7 | 4.3 | 0.00 | 0.00 | 0.00 | 73 | 1013.9 |
| 20260905093503 | 64 | 43 | 0.9 | 3.5 | 0.00 | 0.00 | 0.00 | 65 | 1014.0 |
| 20260905092503 | 64 | 47 | 2.6 | 4.3 | 0.00 | 0.00 | 0.00 | 78 | 1014.0 |
| 20260905092007 | 64 | 70 | 2.6 | 5.2 | 0.00 | 0.00 | 0.00 | 66 | 1014.0 |
| 20260905092003 | 64 | 60 | 2.6 | 5.2 | 0.00 | 0.00 | 0.00 | 72 | 1014.0 |
| 20260905091003 | 64 | 64 | 4.3 | 5.2 | 0.00 | 0.00 | 0.00 | 64 | 1014.0 |
| 20260905090502 | 64 | 57 | 4.3 | 6.1 | 0.00 | 0.00 | 0.00 | 71 | 1014.1 |
| 20260905090002 | 63 | 48 | 5.2 | 7.0 | 0.00 | 0.00 | 0.00 | 78 | 1014.1 |
| 20260905085505 | 63 | 41 | 6.1 | 7.8 | 0.00 | 0.00 | 0.00 | 81 | 1014.1 |
| 20260905085459 | 63 | 33 | 6.1 | 8.7 | 0.00 | 0.00 | 0.00 | 80 | 1014.1 |
| 20260905084458 | 64 | 50 | 7.0 | 8.7 | 0.00 | 0.00 | 0.00 | 80 | 1014.2 |
| 20260905083957 | 64 | 44 | 6.1 | 8.7 | 0.00 | 0.00 | 0.00 | 80 | 1014.3 |
| 20260905083502 | 64 | 42 | 7.0 | 8.7 | 0.00 | 0.00 | 0.00 | 79 | 1014.3 |
| 20260905083457 | 64 | 46 | 6.1 | 8.7 | 0.00 | 0.00 | 0.00 | 79 | 1014.2 |
| 20260905082457 | 64 | 36 | 7.0 | 8.7 | 0.00 | 0.00 | 0.00 | 78 | 1014.2 |
| 20260905081957 | 65 | 35 | 7.0 | 8.7 | 0.00 | 0.00 | 0.00 | 76 | 1014.2 |
| 20260905081457 | 65 | 30 | 6.1 | 7.0 | 0.00 | 0.00 | 0.00 | 72 | 1014.3 |
| 20260905080957 | 66 | 34 | 5.2 | 7.0 | 0.00 | 0.00 | 0.00 | 69 | 1014.3 |
| 20260905080458 | 66 | 39 | 4.3 | 7.0 | 0.00 | 0.00 | 0.00 | 66 | 1014.4 |
| 20260905075957 | 66 | 39 | 4.3 | 8.7 | 0.00 | 0.00 | 0.00 | 54 | 1014.4 |
| 20260905075455 | 66 | 49 | 5.2 | 8.7 | 0.00 | 0.00 | 0.00 | 54 | 1014.4 |
| 20260905074958 | 65 | 42 | 7.0 | 8.7 | 0.00 | 0.00 | 0.00 | 79 | 1014.3 |
| 20260905074954 | 65 | 41 | 6.1 | 8.7 | 0.00 | 0.00 | 0.00 | 69 | 1014.4 |
| 20260905074558 | 65 | 38 | 7.0 | 8.7 | 0.00 | 0.00 | 0.00 | 76 | 1014.3 |
| 20260905074101 | 65 | 38 | 7.0 | 8.7 | 0.00 | 0.00 | 0.00 | 79 | 1014.3 |
| 20260905072950 | 66 | 41 | 7.0 | 8.7 | 0.00 | 0.00 | 0.00 | 77 | 1014.4 |
| 20260905072451 | 66 | 40 | 7.0 | 7.8 | 0.00 | 0.00 | 0.00 | 75 | 1014.3 |
| 20260905071951 | 66 | 46 | 7.8 | 8.7 | 0.00 | 0.00 | 0.00 | 73 | 1014.4 |
| 20260905071455 | 66 | 44 | 6.1 | 7.8 | 0.00 | 0.00 | 0.00 | 69 | 1014.3 |
| 20260905071451 | 66 | 51 | 7.0 | 8.7 | 0.00 | 0.00 | 0.00 | 71 | 1014.3 |
| 20260905070454 | 67 | 41 | 5.2 | 7.8 | 0.00 | 0.00 | 0.00 | 65 | 1014.3 |
| 20260905070450 | 67 | 44 | 5.2 | 7.8 | 0.00 | 0.00 | 0.00 | 67 | 1014.3 |
| 20260905065448 | 67 | 30 | 5.2 | 7.8 | 0.00 | 0.00 | 0.00 | 63 | 1014.3 |
| 20260905064948 | 67 | 44 | 4.3 | 6.1 | 0.00 | 0.00 | 0.00 | 59 | 1014.2 |
| 20260905064447 | 67 | 59 | 4.3 | 7.0 | 0.00 | 0.00 | 0.00 | 62 | 1014.1 |
| 20260905063947 | 67 | 30 | 4.3 | 7.0 | 0.00 | 0.00 | 0.00 | 58 | 1014.2 |
| 20260905063448 | 67 | 53 | 4.3 | 6.1 | 0.00 | 0.00 | 0.00 | 68 | 1014.1 |
| 20260905062950 | 67 | 49 | 6.1 | 6.1 | 0.00 | 0.00 | 0.00 | 63 | 1014.1 |
| 20260905062946 | 67 | 49 | 5.2 | 6.1 | 0.00 | 0.00 | 0.00 | 64 | 1014.1 |
| 20260905061946 | 67 | 53 | 6.1 | 6.1 | 0.00 | 0.00 | 0.00 | 59 | 1014.2 |
| 20260905061446 | 67 | 55 | 5.2 | 6.1 | 0.00 | 0.00 | 0.00 | 60 | 1014.2 |
| 20260905060946 | 67 | 57 | 5.2 | 6.1 | 0.00 | 0.00 | 0.00 | 64 | 1014.2 |
| 20260905060446 | 67 | 40 | 5.2 | 7.0 | 0.00 | 0.00 | 0.00 | 59 | 1014.2 |
| 20260905055946 | 67 | 39 | 5.2 | 7.0 | 0.00 | 0.00 | 0.00 | 67 | 1014.2 |
| 20260905055444 | 67 | 37 | 5.2 | 7.0 | 0.00 | 0.00 | 0.00 | 68 | 1014.1 |
| 20260905054944 | 67 | 47 | 4.3 | 6.1 | 0.00 | 0.00 | 0.00 | 68 | 1014.2 |
| 20260905054444 | 67 | 44 | 3.5 | 5.2 | 0.00 | 0.00 | 0.00 | 66 | 1014.2 |
| 20260905053943 | 67 | 44 | 2.6 | 5.2 | 0.00 | 0.00 | 0.00 | 66 | 1014.2 |
| 20260905053444 | 67 | 55 | 2.6 | 3.5 | 0.00 | 0.00 | 0.00 | 66 | 1014.2 |
| 20260905052944 | 68 | 55 | 2.6 | 3.5 | 0.00 | 0.00 | 0.00 | 66 | 1014.2 |
| 20260905052444 | 68 | 56 | 2.6 | 3.5 | 0.00 | 0.00 | 0.00 | 65 | 1014.3 |
| 20260905051949 | 68 | 41 | 2.6 | 4.3 | 0.00 | 0.00 | 0.00 | 64 | 1014.3 |
| 20260905051944 | 68 | 55 | 2.6 | 4.3 | 0.00 | 0.00 | 0.00 | 65 | 1014.3 |
| 20260905050943 | 68 | 41 | 2.6 | 5.2 | 0.00 | 0.00 | 0.00 | 61 | 1014.3 |
| 20260905050553 | 68 | 9 | 3.5 | 7.0 | 0.00 | 0.00 | 0.00 | 63 | 1014.2 |
| 20260905050447 | 68 | 13 | 3.5 | 6.1 | 0.00 | 0.00 | 0.00 | 62 | 1014.3 |
| 20260905050441 | 68 | 31 | 3.5 | 5.2 | 0.00 | 0.00 | 0.00 | 62 | 1014.3 |
| 20260905050159 | 68 | 10 | 3.5 | 7.0 | 0.00 | 0.00 | 0.00 | 66 | 1014.2 |
| 20260905044442 | 68 | 11 | 4.3 | 7.0 | 0.00 | 0.00 | 0.00 | 67 | 1014.1 |
| 20260905043942 | 68 | 10 | 5.2 | 7.0 | 0.00 | 0.00 | 0.00 | 68 | 1014.1 |
| 20260905043442 | 68 | 9 | 5.2 | 7.0 | 0.00 | 0.00 | 0.00 | 69 | 1014.0 |
| 20260905042942 | 68 | 9 | 4.3 | 7.0 | 0.00 | 0.00 | 0.00 | 70 | 1014.0 |
| 20260905042442 | 67 | 355 | 2.6 | 7.0 | 0.00 | 0.00 | 0.00 | 71 | 1013.9 |
| 20260905041942 | 67 | 355 | 1.7 | 3.5 | 0.00 | 0.00 | 0.00 | 71 | 1013.9 |
| 20260905041442 | 67 | 5 | 2.6 | 5.2 | 0.00 | 0.00 | 0.00 | 71 | 1014.0 |
| 20260905040946 | 68 | 5 | 5.2 | 7.0 | 0.00 | 0.00 | 0.00 | 71 | 1013.8 |
| 20260905040942 | 68 | 5 | 4.3 | 7.0 | 0.00 | 0.00 | 0.00 | 72 | 1013.9 |
| 20260905035946 | 68 | 0 | 5.2 | 7.0 | 0.00 | 0.00 | 0.00 | 71 | 1013.7 |
| 20260905035942 | 68 | 355 | 5.2 | 7.0 | 0.00 | 0.00 | 0.00 | 71 | 1013.8 |
| 20260905034942 | 68 | 0 | 4.3 | 7.0 | 0.00 | 0.00 | 0.00 | 70 | 1013.7 |
| 20260905034442 | 68 | 355 | 4.3 | 7.0 | 0.00 | 0.00 | 0.00 | 70 | 1013.7 |
| 20260905033943 | 68 | 336 | 5.2 | 7.0 | 0.00 | 0.00 | 0.00 | 69 | 1013.6 |
| 20260905033440 | 68 | 349 | 5.2 | 7.0 | 0.00 | 0.00 | 0.00 | 67 | 1013.5 |
| 20260905032940 | 69 | 355 | 4.3 | 7.0 | 0.00 | 0.00 | 0.00 | 67 | 1013.5 |
| 20260905032440 | 69 | 355 | 4.3 | 7.8 | 0.00 | 0.00 | 0.00 | 66 | 1013.4 |
| 20260905031939 | 69 | 5 | 5.2 | 7.8 | 0.00 | 0.00 | 0.00 | 64 | 1013.5 |
| 20260905031437 | 69 | 5 | 6.1 | 7.8 | 0.00 | 0.00 | 0.00 | 66 | 1013.2 |
| 20260905030945 | 68 | 346 | 4.3 | 7.8 | 0.00 | 0.00 | 0.00 | 67 | 1013.1 |
| 20260905030939 | 68 | 355 | 6.1 | 7.8 | 0.00 | 0.00 | 0.00 | 68 | 1013.2 |
| 20260905025936 | 68 | 344 | 3.5 | 5.2 | 0.00 | 0.00 | 0.00 | 67 | 1013.1 |
| 20260905025433 | 68 | 348 | 3.5 | 4.3 | 0.00 | 0.00 | 0.00 | 67 | 1013.1 |
| 20260905024933 | 68 | 334 | 3.5 | 6.1 | 0.00 | 0.00 | 0.00 | 68 | 1013.2 |
| 20260905024434 | 68 | 326 | 2.6 | 6.1 | 0.00 | 0.00 | 0.00 | 68 | 1013.1 |
| 20260905023933 | 68 | 335 | 2.6 | 4.3 | 0.00 | 0.00 | 0.00 | 69 | 1013.2 |
| 20260905023433 | 68 | 314 | 1.7 | 3.5 | 0.00 | 0.00 | 0.00 | 68 | 1013.1 |
| 20260905022934 | 69 | 317 | 0.9 | 2.6 | 0.00 | 0.00 | 0.00 | 65 | 1013.1 |
| 20260905022437 | 69 | 284 | 0.0 | 0.9 | 0.00 | 0.00 | 0.00 | 63 | 1013.2 |
| 20260905022433 | 69 | 286 | 0.0 | 1.7 | 0.00 | 0.00 | 0.00 | 65 | 1013.2 |
| 20260905021434 | 70 | 284 | 0.0 | 1.7 | 0.00 | 0.00 | 0.00 | 62 | 1013.2 |
| 20260905020933 | 70 | 284 | 2.6 | 6.1 | 0.00 | 0.00 | 0.00 | 62 | 1013.4 |
| 20260905020434 | 70 | 283 | 4.3 | 7.0 | 0.00 | 0.00 | 0.00 | 63 | 1013.4 |
| 20260905015933 | 70 | 277 | 3.5 | 7.0 | 0.00 | 0.00 | 0.00 | 62 | 1013.4 |
| 20260905015433 | 71 | 274 | 0.9 | 5.2 | 0.00 | 0.00 | 0.00 | 62 | 1013.4 |
| 20260905014933 | 71 | 293 | 0.0 | 2.6 | 0.00 | 0.00 | 0.00 | 62 | 1013.4 |
| 20260905014433 | 72 | 301 | 0.9 | 2.6 | 0.00 | 0.00 | 0.00 | 62 | 1013.6 |
| 20260905013934 | 72 | 97 | 0.0 | 2.6 | 0.00 | 0.00 | 0.00 | 64 | 1013.5 |
| 20260905013434 | 73 | 315 | 0.9 | 2.6 | 0.00 | 0.00 | 0.00 | 55 | 1013.4 |
| 20260905012933 | 72 | 344 | 0.9 | 2.6 | 0.00 | 0.00 | 0.00 | 55 | 1013.5 |
| 20260905012433 | 73 | 209 | 0.9 | 4.3 | 0.00 | 0.00 | 0.00 | 62 | 1013.5 |
| 20260905011935 | 73 | 178 | 0.9 | 4.3 | 0.00 | 0.00 | 0.00 | 65 | 1013.5 |
| 20260905011433 | 72 | 259 | 0.9 | 3.5 | 0.00 | 0.00 | 0.00 | 40 | 1013.6 |
| 20260905010933 | 71 | 259 | 1.7 | 3.5 | 0.00 | 0.00 | 0.00 | 41 | 1013.7 |
| 20260905010433 | 71 | 250 | 2.6 | 4.3 | 0.00 | 0.00 | 0.00 | 56 | 1013.6 |
| 20260905005938 | 73 | 202 | 2.6 | 4.3 | 0.00 | 0.00 | 0.00 | 63 | 1013.7 |
| 20260905005934 | 72 | 201 | 2.6 | 4.3 | 0.00 | 0.00 | 0.00 | 60 | 1013.7 |
| 20260905005540 | 73 | 183 | 1.7 | 4.3 | 0.00 | 0.00 | 0.00 | 63 | 1013.6 |
| 20260905004433 | 73 | 171 | 0.9 | 5.2 | 0.00 | 0.00 | 0.00 | 55 | 1013.6 |